NOAA 16 DEB

Satellite information

Favourite Embed

Satellite Type and Status

DEBRISIN ORBIT

Key statistics

Satellite NOAA 16 DEB at a glance.

Uptime

9159

Days in orbit

Revolutions

≈ 14.5

Per day

Orbit

SSO

Sun Synchronous Orbit

Inclination

99.0

Latest

Satellite identification and parameters

Extended collection of information and parameters for NOAA 16 DEB.

Object identification

Identified? True

Debris? True

Object name: NOAA 16 DEB

International designator: 2000-055ES

Object number (NORAD): 41237

Object ID (CCSDS): 41237

Country: UNITED STATES OF AMERICA (US)

Current information (Y/N): Y

RCS size: SMALL

Orbital parameters

Period: 99.234 minutes

Inclination: 99.0043 deg

SMA: 7100.166 km

Apoapsis: 751.029 km

Periapsis: 693.033 km

RAAN: 156.791 deg

Eccentricy: 0.00408417

Argument of periapsis: 44.9696 deg

Mean anomaly: 315.4793 deg

Mean motion: 14.51108849 rev/day

Mean motion (dot): 0.00013318 rev/day2

B* drag term: 0.0033303719 1/REarth

Two-line elements (TLE)

Creation date: Oct. 19, 2025, 2:20 a.m.

Reference frame: TEME

Reference center: EARTH

Epoch: Oct. 18, 2025, 1:33 p.m. UTC

TLE line 0: 0 NOAA 16 DEB

TLE line 1: 1 41237U 00055ES 25291.56469309 .00013318 00000-0 33304-2 0 9999

TLE line 2: 2 41237 99.0043 156.7910 0040842 44.9696 315.4793 14.51108849515182

Live tracking on map

Real-time ground track for satellite NOAA 16 DEB.

In-orbit conjunctions

A list of the most updated potential collisions computed for object NOAA 16 DEB.

Target Orbit TCA Probability of collision Miss distance Type
FENGYUN 1C DEB SSO 2025-05-30 20:28:43 0.0001093936 45.0 (m) DEBRIS
CHUANG XIN 1 (CZ-1) SSO 2024-12-31 14:21:45 0.001180707 40.0 (m) PAYLOAD

Associated space launch

The NOAA K, L and M POES satellites begin the fifth generation of improved environmental monitoring in support of NOAA missions. The instrument payload has significant improvements and additions/deletions. The instrument changes have effected the spacecraft subsystems and data formats.

NOAA 16 DEB was lifted into orbit during the mission ‘Titan II SLV | NOAA 16’, on board a Titan II SLV space rocket.

The launch took place on Sept. 21, 2000, 10:22 a.m. from Space Launch Complex 4W.

For more information about the launch, click the button.

Launch to space Titan II SLV | NOAA 16
Titan II SLV | NOAA 16

Agency: N/A

Status: Launch Successful

Launch date: Sept. 21, 2000, 10:22 a.m. UTC

Rocket: Titan II SLV

Launch pad: Space Launch Complex 4W

Location: Vandenberg SFB, CA, USA

...

Latest news about this satellite

There are no fresh news available about this satellite. Check back as we update our databases every day.


Newsletter sign-up

Weekly statistics, charts and insights to help you stay on top of the space industry.